Precipitable_Water
1.23 1.23 1.31 1.35 1.37 1.35 1.35 1.36 1.33 1.34 1.32 1.33 1.31 1.28 1.26 1.21 1.18 1.17 1.18 1.16 1.13 1.06 1.02 0.97 0.93 0.90 0.84 0.79 0.73 0.68 0.64 0.64 0.62 0.59 0.56 0.54 0.55 0.53 0.53 0.52 0.50 0.49 0.48 0.49 0.50 0.47 0.43 0.41 0.42 0.43 0.44 0.42 0.41 0.41 0.39 0.40 0.41 0.38 0.39 0.39 0.36 0.36 0.34 0.30 0.27 0.25 0.27 0.32 0.31 0.30 0.30 0.30 0.26 0.25 0.25 0.26 0.25 0.25 0.26 0.24 0.22 0.23 0.23 0.24 0.25
1.22 1.25 1.31 1.34 1.36 1.37 1.37 1.37 1.35 1.35 1.34 1.31 1.29 1.26 1.22 1.20 1.19 1.19 1.16 1.16 1.13 1.07 1.02 0.96 0.91 0.88 0.82 0.77 0.73 0.68 0.67 0.63 0.61 0.59 0.58 0.57 0.54 0.56 0.55 0.54 0.50 0.47 0.49 0.48 0.48 0.46 0.45 0.41 0.41 0.41 0.42 0.40 0.40 0.39 0.39 0.40 0.40 0.40 0.36 0.37 0.35 0.36 0.37 0.32 0.29 0.28 0.25 0.27 0.28 0.28 0.28 0.28 0.24 0.26 0.25 0.24 0.24 0.26 0.23 0.20 0.22 0.23 0.23 0.23 0.23
1.27 1.29 1.30 1.33 1.35 1.39 1.39 1.36 1.35 1.33 1.32 1.30 1.26 1.23 1.21 1.20 1.21 1.19 1.17 1.18 1.14 1.07 1.01 0.94 0.88 0.85 0.81 0.78 0.72 0.69 0.66 0.62 0.62 0.61 0.60 0.57 0.55 0.56 0.57 0.55 0.52 0.51 0.49 0.46 0.46 0.45 0.43 0.43 0.41 0.42 0.43 0.42 0.40 0.37 0.37 0.38 0.41 0.41 0.37 0.38 0.36 0.38 0.37 0.35 0.32 0.28 0.26 0.25 0.27 0.25 0.25 0.25 0.24 0.24 0.24 0.25 0.26 0.24 0.20 0.21 0.22 0.23 0.22 0.22 0.23
1.28 1.28 1.30 1.33 1.37 1.37 1.36 1.36 1.32 1.29 1.27 1.27 1.23 1.22 1.21 1.21 1.22 1.21 1.18 1.18 1.11 1.06 1.00 0.91 0.86 0.83 0.80 0.78 0.72 0.69 0.67 0.64 0.63 0.63 0.60 0.58 0.57 0.57 0.57 0.55 0.52 0.50 0.48 0.46 0.45 0.46 0.45 0.43 0.41 0.42 0.42 0.39 0.40 0.38 0.36 0.38 0.40 0.41 0.37 0.37 0.38 0.37 0.34 0.33 0.32 0.29 0.28 0.24 0.23 0.24 0.25 0.23 0.24 0.24 0.25 0.27 0.24 0.21 0.21 0.22 0.22 0.21 0.20 0.23 0.25
1.27 1.29 1.30 1.31 1.34 1.34 1.33 1.34 1.30 1.26 1.25 1.24 1.22 1.22 1.21 1.21 1.22 1.19 1.18 1.15 1.09 1.03 0.98 0.90 0.83 0.82 0.80 0.76 0.73 0.71 0.68 0.65 0.63 0.62 0.61 0.60 0.60 0.59 0.57 0.55 0.54 0.51 0.50 0.49 0.49 0.46 0.45 0.43 0.42 0.43 0.44 0.41 0.37 0.36 0.35 0.36 0.38 0.38 0.39 0.39 0.35 0.33 0.30 0.29 0.29 0.29 0.26 0.23 0.22 0.24 0.24 0.24 0.23 0.23 0.25 0.23 0.21 0.21 0.22 0.22 0.20 0.20 0.21 0.23 0.26
1.28 1.28 1.30 1.31 1.32 1.32 1.32 1.32 1.30 1.25 1.24 1.23 1.22 1.22 1.22 1.20 1.20 1.17 1.17 1.13 1.08 1.02 0.93 0.86 0.82 0.80 0.79 0.77 0.75 0.74 0.70 0.68 0.66 0.64 0.63 0.63 0.62 0.60 0.59 0.58 0.57 0.55 0.53 0.51 0.49 0.47 0.43 0.43 0.44 0.42 0.42 0.39 0.36 0.35 0.33 0.33 0.37 0.40 0.39 0.33 0.30 0.28 0.27 0.26 0.27 0.26 0.24 0.23 0.22 0.20 0.21 0.21 0.21 0.22 0.24 0.22 0.20 0.19 0.20 0.20 0.20 0.21 0.22 0.23 0.26
1.27 1.27 1.30 1.30 1.30 1.31 1.30 1.31 1.30 1.26 1.24 1.23 1.23 1.22 1.20 1.19 1.17 1.14 1.14 1.12 1.08 0.99 0.89 0.83 0.81 0.80 0.79 0.79 0.76 0.76 0.73 0.70 0.69 0.68 0.67 0.67 0.64 0.62 0.61 0.60 0.59 0.56 0.53 0.51 0.49 0.46 0.45 0.44 0.42 0.40 0.38 0.37 0.35 0.32 0.29 0.33 0.38 0.37 0.34 0.29 0.27 0.25 0.24 0.24 0.24 0.23 0.22 0.21 0.20 0.20 0.19 0.20 0.21 0.20 0.22 0.21 0.20 0.20 0.18 0.17 0.18 0.21 0.24 0.24 0.23
1.25 1.26 1.28 1.29 1.29 1.29 1.32 1.33 1.32 1.28 1.25 1.25 1.23 1.21 1.19 1.17 1.15 1.14 1.12 1.09 1.06 0.97 0.86 0.82 0.81 0.79 0.78 0.78 0.78 0.79 0.76 0.75 0.74 0.72 0.71 0.69 0.66 0.66 0.65 0.62 0.58 0.54 0.52 0.50 0.47 0.46 0.45 0.44 0.41 0.37 0.35 0.33 0.33 0.30 0.30 0.32 0.33 0.30 0.28 0.26 0.24 0.23 0.23 0.23 0.23 0.21 0.20 0.19 0.18 0.18 0.18 0.18 0.20 0.21 0.21 0.19 0.19 0.19 0.20 0.20 0.19 0.20 0.22 0.24 0.25
1.25 1.26 1.28 1.28 1.27 1.29 1.32 1.33 1.32 1.28 1.24 1.23 1.21 1.19 1.16 1.15 1.13 1.10 1.08 1.07 1.05 0.96 0.89 0.85 0.79 0.77 0.79 0.80 0.80 0.80 0.78 0.79 0.76 0.72 0.70 0.72 0.73 0.71 0.68 0.61 0.55 0.51 0.49 0.48 0.46 0.45 0.45 0.44 0.38 0.34 0.30 0.26 0.26 0.31 0.34 0.32 0.29 0.26 0.25 0.25 0.24 0.24 0.24 0.24 0.23 0.21 0.20 0.19 0.17 0.17 0.17 0.17 0.18 0.18 0.17 0.18 0.18 0.18 0.20 0.23 0.22 0.23 0.24 0.24 0.24
1.26 1.26 1.26 1.27 1.29 1.29 1.32 1.33 1.30 1.25 1.21 1.19 1.19 1.17 1.14 1.12 1.08 1.06 1.06 1.06 1.04 0.99 0.92 0.88 0.84 0.81 0.81 0.83 0.83 0.86 0.82 0.81 0.77 0.71 0.70 0.66 0.65 0.63 0.57 0.54 0.51 0.49 0.46 0.45 0.43 0.44 0.43 0.41 0.35 0.28 0.25 0.27 0.33 0.35 0.34 0.33 0.32 0.31 0.29 0.29 0.28 0.28 0.27 0.25 0.25 0.24 0.22 0.19 0.17 0.16 0.16 0.16 0.18 0.19 0.18 0.20 0.21 0.22 0.22 0.23 0.22 0.23 0.24 0.23 0.23
1.27 1.27 1.25 1.28 1.29 1.31 1.31 1.31 1.28 1.21 1.20 1.19 1.18 1.16 1.13 1.09 1.06 1.05 1.06 1.06 1.04 1.02 0.96 0.92 0.88 0.87 0.85 0.84 0.85 0.86 0.85 0.78 0.72 0.67 0.66 0.64 0.63 0.57 0.52 0.52 0.50 0.48 0.46 0.44 0.42 0.41 0.47 0.41 0.36 0.35 0.37 0.36 0.36 0.36 0.36 0.35 0.33 0.31 0.31 0.32 0.33 0.32 0.29 0.27 0.26 0.27 0.24 0.20 0.19 0.18 0.17 0.18 0.20 0.21 0.21 0.22 0.23 0.23 0.24 0.25 0.24 0.24 0.22 0.20 0.19
1.28 1.27 1.27 1.28 1.29 1.29 1.31 1.30 1.25 1.21 1.20 1.18 1.17 1.16 1.14 1.09 1.05 1.04 1.04 1.04 1.06 1.04 0.99 0.94 0.89 0.89 0.86 0.89 0.92 0.88 0.80 0.73 0.67 0.64 0.67 0.68 0.61 0.55 0.53 0.52 0.49 0.48 0.47 0.46 0.44 0.45 0.46 0.44 0.42 0.43 0.43 0.37 0.36 0.38 0.39 0.37 0.34 0.32 0.32 0.34 0.35 0.35 0.34 0.31 0.28 0.26 0.25 0.22 0.19 0.18 0.19 0.20 0.21 0.23 0.24 0.25 0.25 0.26 0.26 0.26 0.25 0.24 0.22 0.21 0.22
1.28 1.27 1.27 1.28 1.29 1.29 1.30 1.29 1.24 1.20 1.19 1.19 1.18 1.16 1.13 1.08 1.03 1.02 1.02 1.05 1.04 1.01 0.98 0.91 0.89 0.89 0.86 0.90 0.94 0.87 0.77 0.69 0.65 0.64 0.67 0.63 0.58 0.56 0.54 0.52 0.50 0.49 0.47 0.47 0.48 0.50 0.48 0.46 0.45 0.44 0.46 0.39 0.40 0.40 0.35 0.33 0.34 0.33 0.33 0.36 0.37 0.36 0.35 0.35 0.35 0.31 0.29 0.24 0.21 0.20 0.21 0.22 0.23 0.24 0.26 0.28 0.30 0.27 0.27 0.26 0.26 0.25 0.25 0.24 0.24
1.24 1.24 1.25 1.26 1.27 1.28 1.29 1.27 1.21 1.19 1.20 1.19 1.17 1.14 1.11 1.07 1.05 1.06 1.06 1.04 0.99 0.96 0.94 0.88 0.88 0.89 0.87 0.90 0.90 0.81 0.76 0.69 0.67 0.66 0.63 0.58 0.58 0.57 0.57 0.55 0.49 0.51 0.48 0.48 0.53 0.53 0.51 0.48 0.45 0.43 0.47 0.45 0.44 0.36 0.31 0.27 0.27 0.28 0.33 0.37 0.38 0.38 0.36 0.37 0.36 0.33 0.30 0.26 0.23 0.20 0.23 0.27 0.25 0.27 0.30 0.32 0.30 0.28 0.28 0.26 0.27 0.26 0.26 0.26 0.28
1.18 1.18 1.18 1.22 1.26 1.28 1.28 1.24 1.19 1.18 1.18 1.17 1.15 1.13 1.08 1.05 1.04 1.04 1.05 1.01 0.97 0.94 0.92 0.85 0.83 0.83 0.84 0.89 0.86 0.78 0.78 0.70 0.68 0.66 0.60 0.57 0.57 0.56 0.55 0.55 0.48 0.50 0.51 0.53 0.53 0.51 0.50 0.50 0.51 0.49 0.47 0.44 0.40 0.36 0.29 0.24 0.25 0.29 0.33 0.35 0.36 0.33 0.35 0.37 0.36 0.32 0.28 0.26 0.25 0.26 0.27 0.29 0.30 0.31 0.32 0.33 0.33 0.33 0.32 0.30 0.29 0.29 0.30 0.30 0.28
1.15 1.17 1.18 1.21 1.24 1.26 1.24 1.20 1.16 1.15 1.15 1.14 1.12 1.10 1.07 1.05 1.04 1.05 1.06 1.04 1.01 0.97 0.94 0.88 0.83 0.82 0.86 0.87 0.82 0.75 0.75 0.71 0.68 0.64 0.58 0.56 0.57 0.53 0.54 0.52 0.48 0.51 0.53 0.52 0.51 0.50 0.50 0.50 0.48 0.46 0.45 0.43 0.39 0.36 0.29 0.24 0.25 0.29 0.31 0.34 0.32 0.33 0.36 0.36 0.34 0.31 0.27 0.26 0.27 0.28 0.30 0.32 0.32 0.31 0.32 0.32 0.33 0.33 0.33 0.32 0.32 0.30 0.28 0.26 0.24
1.13 1.14 1.17 1.21 1.25 1.26 1.24 1.19 1.15 1.13 1.14 1.14 1.13 1.11 1.08 1.06 1.06 1.08 1.04 1.02 0.99 0.95 0.90 0.88 0.86 0.83 0.84 0.80 0.75 0.75 0.74 0.72 0.68 0.60 0.54 0.53 0.52 0.50 0.52 0.53 0.53 0.53 0.53 0.51 0.49 0.47 0.51 0.49 0.43 0.41 0.43 0.40 0.39 0.37 0.30 0.25 0.24 0.29 0.30 0.29 0.30 0.32 0.32 0.32 0.28 0.24 0.26 0.28 0.30 0.32 0.32 0.32 0.32 0.31 0.31 0.31 0.32 0.32 0.32 0.29 0.27 0.27 0.26 0.24 0.24
1.15 1.14 1.17 1.22 1.24 1.25 1.23 1.21 1.17 1.15 1.14 1.14 1.13 1.11 1.10 1.09 1.07 1.08 1.04 0.99 0.96 0.92 0.88 0.84 0.83 0.81 0.77 0.75 0.75 0.74 0.74 0.73 0.68 0.59 0.51 0.48 0.48 0.50 0.51 0.52 0.52 0.51 0.49 0.47 0.45 0.48 0.52 0.48 0.41 0.44 0.43 0.41 0.37 0.36 0.30 0.25 0.25 0.27 0.27 0.26 0.27 0.28 0.27 0.24 0.22 0.25 0.28 0.31 0.32 0.33 0.34 0.34 0.32 0.31 0.31 0.31 0.32 0.33 0.30 0.26 0.28 0.29 0.26 0.26 0.23
1.17 1.16 1.18 1.22 1.25 1.25 1.22 1.20 1.18 1.14 1.14 1.13 1.12 1.09 1.08 1.07 1.08 1.05 1.00 0.95 0.89 0.84 0.81 0.78 0.77 0.75 0.75 0.73 0.79 0.81 0.82 0.77 0.68 0.61 0.50 0.45 0.47 0.52 0.51 0.50 0.47 0.43 0.42 0.45 0.46 0.50 0.49 0.45 0.40 0.39 0.39 0.37 0.36 0.33 0.27 0.25 0.25 0.26 0.25 0.25 0.25 0.25 0.24 0.22 0.23 0.23 0.26 0.28 0.29 0.31 0.33 0.32 0.31 0.31 0.31 0.32 0.33 0.33 0.33 0.31 0.31 0.29 0.27 0.26 0.25
1.22 1.22 1.22 1.21 1.22 1.22 1.19 1.14 1.14 1.13 1.12 1.11 1.10 1.08 1.07 1.05 1.03 0.99 0.96 0.92 0.87 0.82 0.79 0.74 0.72 0.75 0.79 0.77 0.84 0.92 0.87 0.76 0.68 0.62 0.50 0.46 0.48 0.53 0.50 0.46 0.40 0.41 0.44 0.47 0.44 0.47 0.46 0.42 0.38 0.34 0.34 0.34 0.32 0.28 0.26 0.26 0.25 0.26 0.26 0.24 0.22 0.21 0.24 0.24 0.25 0.26 0.27 0.29 0.30 0.32 0.31 0.31 0.32 0.31 0.32 0.33 0.34 0.35 0.35 0.34 0.33 0.31 0.29 0.27 0.26
1.23 1.23 1.22 1.21 1.20 1.19 1.16 1.15 1.12 1.10 1.09 1.07 1.07 1.06 1.03 1.02 1.01 0.96 0.91 0.86 0.80 0.75 0.73 0.71 0.76 0.79 0.82 0.82 0.87 0.92 0.85 0.73 0.65 0.57 0.50 0.50 0.50 0.50 0.46 0.44 0.44 0.47 0.45 0.46 0.46 0.42 0.41 0.38 0.35 0.30 0.28 0.28 0.28 0.26 0.26 0.26 0.27 0.27 0.26 0.24 0.22 0.22 0.24 0.25 0.26 0.27 0.28 0.29 0.31 0.31 0.29 0.30 0.30 0.31 0.32 0.33 0.34 0.36 0.36 0.35 0.34 0.34 0.32 0.29 0.27
1.22 1.21 1.20 1.16 1.14 1.10 1.09 1.11 1.09 1.06 1.06 1.06 1.04 1.02 1.01 1.00 0.98 0.92 0.87 0.81 0.78 0.78 0.81 0.81 0.79 0.79 0.85 0.93 0.90 0.89 0.81 0.67 0.56 0.50 0.49 0.50 0.49 0.44 0.41 0.43 0.46 0.47 0.48 0.46 0.44 0.41 0.40 0.39 0.35 0.32 0.30 0.30 0.29 0.26 0.26 0.27 0.28 0.28 0.27 0.25 0.24 0.24 0.26 0.27 0.28 0.28 0.28 0.30 0.31 0.29 0.28 0.28 0.28 0.30 0.31 0.32 0.34 0.36 0.37 0.36 0.36 0.35 0.34 0.32 0.30
1.16 1.13 1.09 1.06 1.03 1.05 1.08 1.08 1.06 1.06 1.05 1.04 1.02 1.00 1.00 0.96 0.93 0.88 0.84 0.80 0.78 0.79 0.80 0.80 0.80 0.81 0.84 0.86 0.85 0.82 0.69 0.57 0.51 0.47 0.47 0.48 0.46 0.42 0.40 0.42 0.44 0.46 0.47 0.46 0.45 0.42 0.41 0.41 0.38 0.37 0.36 0.35 0.33 0.29 0.27 0.27 0.28 0.28 0.28 0.27 0.26 0.27 0.28 0.29 0.29 0.29 0.28 0.30 0.30 0.27 0.27 0.28 0.28 0.29 0.30 0.31 0.34 0.36 0.37 0.37 0.37 0.35 0.34 0.33 0.32
1.10 1.05 1.01 1.00 1.03 1.04 1.03 1.03 1.03 1.04 1.02 1.00 0.98 0.96 0.93 0.92 0.89 0.86 0.83 0.83 0.84 0.83 0.80 0.76 0.83 0.83 0.83 0.84 0.77 0.71 0.64 0.55 0.50 0.48 0.47 0.46 0.45 0.42 0.38 0.40 0.43 0.44 0.46 0.48 0.49 0.44 0.44 0.41 0.39 0.38 0.38 0.37 0.35 0.31 0.28 0.27 0.28 0.28 0.30 0.30 0.29 0.29 0.29 0.29 0.29 0.29 0.29 0.29 0.28 0.26 0.26 0.28 0.29 0.29 0.30 0.33 0.35 0.37 0.37 0.37 0.37 0.36 0.33 0.32 0.31
0.99 0.95 0.95 0.96 0.97 0.97 0.98 0.98 0.99 0.99 0.98 0.96 0.92 0.91 0.90 0.89 0.86 0.85 0.84 0.83 0.81 0.78 0.78 0.83 0.81 0.75 0.76 0.74 0.66 0.64 0.59 0.53 0.50 0.50 0.48 0.46 0.44 0.41 0.36 0.38 0.40 0.42 0.44 0.48 0.45 0.41 0.41 0.41 0.40 0.39 0.37 0.35 0.32 0.28 0.27 0.27 0.28 0.31 0.32 0.32 0.31 0.30 0.30 0.30 0.30 0.30 0.27 0.28 0.28 0.26 0.26 0.28 0.30 0.31 0.33 0.35 0.36 0.37 0.36 0.37 0.37 0.37 0.35 0.33 0.31
0.94 0.93 0.93 0.94 0.95 0.96 0.95 0.95 0.95 0.95 0.95 0.94 0.92 0.92 0.90 0.88 0.86 0.85 0.84 0.82 0.79 0.78 0.78 0.75 0.75 0.76 0.73 0.67 0.60 0.58 0.55 0.51 0.49 0.49 0.48 0.45 0.43 0.39 0.34 0.34 0.37 0.41 0.43 0.44 0.43 0.41 0.40 0.40 0.40 0.39 0.37 0.35 0.31 0.28 0.27 0.29 0.32 0.34 0.34 0.34 0.34 0.33 0.32 0.31 0.31 0.30 0.27 0.28 0.28 0.26 0.26 0.30 0.30 0.31 0.34 0.35 0.34 0.34 0.35 0.36 0.36 0.36 0.36 0.33 0.30
0.93 0.91 0.89 0.92 0.94 0.95 0.92 0.91 0.91 0.91 0.91 0.90 0.89 0.89 0.88 0.86 0.85 0.83 0.82 0.80 0.80 0.81 0.78 0.77 0.76 0.73 0.68 0.61 0.57 0.58 0.56 0.51 0.48 0.48 0.46 0.43 0.40 0.36 0.32 0.31 0.34 0.39 0.41 0.41 0.41 0.40 0.39 0.39 0.37 0.37 0.36 0.35 0.32 0.30 0.29 0.33 0.36 0.37 0.36 0.35 0.35 0.34 0.33 0.32 0.32 0.31 0.28 0.30 0.29 0.27 0.28 0.31 0.32 0.32 0.32 0.33 0.32 0.34 0.36 0.37 0.36 0.36 0.37 0.36 0.33
0.88 0.88 0.90 0.93 0.95 0.95 0.94 0.93 0.93 0.91 0.90 0.89 0.86 0.84 0.84 0.85 0.83 0.81 0.80 0.81 0.79 0.75 0.74 0.74 0.71 0.66 0.61 0.54 0.53 0.55 0.53 0.49 0.47 0.45 0.43 0.38 0.34 0.33 0.32 0.31 0.31 0.33 0.36 0.38 0.39 0.40 0.39 0.37 0.36 0.35 0.33 0.30 0.29 0.28 0.28 0.31 0.36 0.37 0.37 0.36 0.35 0.35 0.34 0.34 0.34 0.33 0.30 0.32 0.30 0.29 0.30 0.31 0.29 0.30 0.32 0.31 0.32 0.33 0.36 0.36 0.36 0.36 0.38 0.37 0.34
0.90 0.89 0.92 0.94 0.95 0.97 0.96 0.95 0.94 0.93 0.91 0.91 0.90 0.91 0.88 0.85 0.85 0.85 0.87 0.86 0.83 0.78 0.74 0.73 0.70 0.66 0.61 0.56 0.54 0.51 0.50 0.48 0.49 0.46 0.37 0.33 0.32 0.32 0.31 0.30 0.30 0.31 0.34 0.36 0.37 0.38 0.36 0.34 0.32 0.31 0.29 0.28 0.28 0.30 0.33 0.37 0.38 0.40 0.39 0.38 0.37 0.36 0.34 0.30 0.29 0.29 0.29 0.30 0.29 0.29 0.30 0.30 0.29 0.31 0.31 0.30 0.31 0.33 0.36 0.35 0.36 0.36 0.37 0.37 0.35
0.88 0.90 0.92 0.93 0.94 0.95 0.95 0.96 0.96 0.95 0.93 0.91 0.91 0.92 0.95 0.92 0.89 0.87 0.85 0.88 0.87 0.83 0.80 0.76 0.71 0.62 0.57 0.57 0.55 0.50 0.48 0.47 0.49 0.45 0.39 0.35 0.33 0.33 0.32 0.31 0.31 0.32 0.33 0.33 0.34 0.33 0.32 0.30 0.29 0.30 0.32 0.33 0.32 0.33 0.35 0.37 0.39 0.39 0.37 0.36 0.34 0.31 0.29 0.29 0.30 0.29 0.30 0.30 0.30 0.31 0.31 0.29 0.28 0.29 0.29 0.28 0.30 0.32 0.34 0.35 0.34 0.36 0.36 0.35 0.35
0.92 0.93 0.92 0.92 0.93 0.94 0.94 0.93 0.93 0.92 0.91 0.90 0.90 0.89 0.90 0.91 0.90 0.89 0.88 0.87 0.85 0.82 0.80 0.76 0.68 0.61 0.57 0.52 0.52 0.52 0.52 0.52 0.52 0.47 0.41 0.37 0.34 0.34 0.34 0.33 0.32 0.31 0.31 0.29 0.29 0.29 0.31 0.32 0.34 0.35 0.36 0.35 0.34 0.34 0.36 0.36 0.36 0.34 0.32 0.31 0.32 0.32 0.32 0.30 0.29 0.29 0.30 0.30 0.32 0.32 0.30 0.28 0.28 0.28 0.27 0.28 0.30 0.31 0.32 0.34 0.35 0.36 0.35 0.35 0.34
0.94 0.92 0.92 0.93 0.95 0.95 0.94 0.93 0.91 0.89 0.89 0.90 0.88 0.84 0.84 0.83 0.84 0.89 0.90 0.88 0.85 0.83 0.83 0.77 0.69 0.62 0.56 0.51 0.51 0.49 0.52 0.55 0.55 0.49 0.43 0.39 0.36 0.37 0.36 0.35 0.33 0.31 0.33 0.31 0.28 0.28 0.30 0.32 0.32 0.32 0.32 0.31 0.30 0.31 0.32 0.33 0.35 0.36 0.35 0.32 0.32 0.33 0.32 0.31 0.32 0.31 0.31 0.32 0.33 0.31 0.29 0.28 0.26 0.26 0.27 0.28 0.30 0.30 0.31 0.32 0.33 0.34 0.34 0.35 0.35
0.93 0.91 0.93 0.93 0.95 0.94 0.93 0.91 0.90 0.89 0.88 0.87 0.85 0.83 0.83 0.84 0.81 0.81 0.85 0.88 0.86 0.83 0.77 0.71 0.66 0.59 0.53 0.52 0.59 0.58 0.59 0.59 0.54 0.48 0.44 0.40 0.38 0.39 0.40 0.37 0.36 0.36 0.36 0.35 0.32 0.30 0.30 0.29 0.29 0.30 0.29 0.27 0.27 0.29 0.31 0.34 0.36 0.36 0.36 0.35 0.34 0.34 0.34 0.34 0.34 0.33 0.32 0.33 0.32 0.30 0.29 0.26 0.26 0.25 0.27 0.29 0.30 0.30 0.31 0.31 0.32 0.33 0.33 0.33 0.33
0.99 0.92 0.90 0.93 0.94 0.93 0.93 0.93 0.91 0.90 0.91 0.89 0.86 0.85 0.85 0.85 0.85 0.86 0.84 0.84 0.83 0.83 0.80 0.74 0.68 0.60 0.55 0.53 0.60 0.62 0.60 0.58 0.56 0.51 0.47 0.44 0.41 0.39 0.39 0.39 0.39 0.40 0.38 0.34 0.32 0.29 0.28 0.28 0.28 0.29 0.29 0.29 0.30 0.32 0.34 0.36 0.38 0.39 0.39 0.37 0.35 0.34 0.34 0.34 0.32 0.33 0.34 0.32 0.31 0.29 0.27 0.26 0.26 0.27 0.28 0.29 0.30 0.30 0.29 0.30 0.31 0.31 0.31 0.32 0.32
1.01 0.95 0.94 0.98 0.98 0.97 0.97 0.97 0.95 0.93 0.92 0.90 0.87 0.88 0.88 0.88 0.90 0.88 0.83 0.78 0.75 0.73 0.71 0.69 0.68 0.64 0.59 0.56 0.57 0.61 0.62 0.61 0.58 0.54 0.51 0.48 0.45 0.42 0.41 0.39 0.38 0.38 0.37 0.35 0.32 0.30 0.28 0.28 0.29 0.29 0.29 0.29 0.30 0.34 0.36 0.38 0.41 0.41 0.39 0.37 0.36 0.36 0.35 0.34 0.34 0.33 0.31 0.31 0.30 0.28 0.26 0.26 0.28 0.29 0.30 0.28 0.26 0.27 0.28 0.29 0.30 0.30 0.30 0.31 0.32
0.98 0.97 0.98 1.00 1.02 1.02 1.01 0.99 0.97 0.95 0.94 0.92 0.92 0.92 0.91 0.89 0.86 0.85 0.83 0.78 0.74 0.71 0.70 0.69 0.68 0.66 0.62 0.58 0.57 0.58 0.59 0.58 0.57 0.55 0.52 0.50 0.48 0.46 0.41 0.40 0.39 0.38 0.36 0.35 0.34 0.33 0.33 0.34 0.34 0.32 0.31 0.30 0.32 0.35 0.37 0.39 0.40 0.40 0.40 0.39 0.38 0.38 0.37 0.36 0.35 0.33 0.32 0.30 0.29 0.27 0.26 0.27 0.29 0.30 0.30 0.28 0.26 0.26 0.28 0.29 0.29 0.29 0.30 0.31 0.31
0.97 0.97 0.98 0.99 1.02 1.03 1.03 1.02 1.01 0.99 0.98 0.95 0.93 0.91 0.89 0.87 0.86 0.84 0.79 0.76 0.77 0.76 0.72 0.70 0.68 0.66 0.65 0.62 0.59 0.58 0.59 0.59 0.58 0.57 0.54 0.53 0.52 0.50 0.45 0.42 0.39 0.37 0.36 0.36 0.35 0.33 0.33 0.34 0.34 0.32 0.32 0.33 0.35 0.37 0.39 0.41 0.42 0.42 0.42 0.41 0.40 0.39 0.37 0.36 0.34 0.32 0.30 0.29 0.28 0.26 0.27 0.28 0.29 0.30 0.28 0.26 0.25 0.26 0.28 0.29 0.28 0.29 0.29 0.30 0.31
1.07 1.05 1.03 1.02 1.01 1.01 1.03 1.02 1.01 0.99 0.97 0.94 0.93 0.91 0.88 0.87 0.85 0.80 0.79 0.82 0.81 0.79 0.76 0.73 0.71 0.67 0.63 0.63 0.64 0.60 0.59 0.59 0.59 0.58 0.57 0.56 0.55 0.51 0.46 0.43 0.41 0.40 0.38 0.37 0.36 0.35 0.35 0.35 0.35 0.32 0.30 0.31 0.32 0.36 0.39 0.41 0.41 0.40 0.41 0.43 0.43 0.42 0.40 0.38 0.36 0.33 0.32 0.29 0.28 0.28 0.28 0.28 0.28 0.27 0.27 0.26 0.25 0.26 0.26 0.27 0.28 0.28 0.29 0.30 0.30
1.09 1.10 1.11 1.04 1.02 1.03 1.03 1.00 0.98 0.96 0.92 0.90 0.89 0.89 0.89 0.85 0.81 0.80 0.80 0.79 0.79 0.77 0.75 0.72 0.71 0.70 0.68 0.67 0.64 0.62 0.59 0.56 0.54 0.54 0.54 0.53 0.51 0.48 0.46 0.44 0.43 0.42 0.41 0.40 0.39 0.37 0.36 0.37 0.37 0.35 0.34 0.34 0.34 0.36 0.39 0.41 0.43 0.44 0.45 0.45 0.43 0.42 0.40 0.37 0.35 0.33 0.31 0.29 0.28 0.28 0.28 0.27 0.26 0.27 0.28 0.27 0.27 0.26 0.26 0.27 0.28 0.29 0.29 0.29 0.29
0.98 1.03 1.06 1.06 1.05 1.03 1.01 0.98 0.95 0.91 0.89 0.88 0.88 0.90 0.88 0.84 0.80 0.80 0.81 0.80 0.78 0.76 0.73 0.71 0.72 0.73 0.74 0.71 0.66 0.63 0.58 0.56 0.55 0.54 0.53 0.51 0.49 0.48 0.46 0.43 0.41 0.40 0.39 0.38 0.37 0.37 0.38 0.41 0.41 0.38 0.37 0.38 0.39 0.41 0.43 0.44 0.46 0.46 0.45 0.44 0.43 0.41 0.40 0.38 0.35 0.32 0.30 0.30 0.29 0.28 0.26 0.26 0.28 0.28 0.27 0.28 0.28 0.28 0.28 0.28 0.29 0.29 0.30 0.29 0.29
0.97 1.00 1.02 1.02 0.99 0.95 0.92 0.91 0.90 0.88 0.86 0.85 0.87 0.87 0.86 0.84 0.83 0.84 0.84 0.82 0.78 0.75 0.73 0.73 0.73 0.75 0.77 0.75 0.72 0.66 0.59 0.55 0.53 0.51 0.50 0.48 0.46 0.44 0.42 0.41 0.39 0.38 0.38 0.38 0.37 0.37 0.40 0.43 0.43 0.39 0.38 0.40 0.43 0.45 0.47 0.47 0.46 0.46 0.45 0.45 0.44 0.42 0.40 0.38 0.35 0.32 0.29 0.27 0.28 0.28 0.28 0.28 0.27 0.27 0.27 0.28 0.28 0.28 0.29 0.30 0.29 0.29 0.28 0.28 0.29
0.97 0.97 0.96 0.94 0.92 0.89 0.86 0.85 0.86 0.89 0.90 0.88 0.85 0.84 0.85 0.84 0.84 0.83 0.81 0.79 0.78 0.77 0.76 0.75 0.75 0.74 0.74 0.75 0.74 0.70 0.64 0.59 0.55 0.52 0.51 0.49 0.46 0.43 0.40 0.39 0.39 0.39 0.39 0.39 0.39 0.38 0.40 0.43 0.43 0.41 0.40 0.42 0.45 0.47 0.49 0.50 0.50 0.49 0.47 0.45 0.42 0.40 0.38 0.37 0.35 0.33 0.32 0.31 0.30 0.28 0.28 0.28 0.28 0.28 0.28 0.28 0.28 0.28 0.29 0.29 0.29 0.28 0.27 0.27 0.27
0.92 0.93 0.92 0.90 0.88 0.85 0.84 0.84 0.85 0.85 0.85 0.84 0.84 0.85 0.86 0.85 0.85 0.87 0.85 0.84 0.83 0.80 0.77 0.74 0.73 0.71 0.69 0.69 0.69 0.68 0.64 0.59 0.55 0.52 0.51 0.49 0.45 0.42 0.39 0.36 0.37 0.38 0.39 0.41 0.41 0.42 0.43 0.45 0.44 0.41 0.40 0.42 0.46 0.48 0.50 0.50 0.50 0.47 0.45 0.44 0.42 0.39 0.37 0.35 0.33 0.32 0.32 0.32 0.31 0.31 0.30 0.29 0.28 0.27 0.26 0.26 0.27 0.28 0.28 0.28 0.28 0.28 0.27 0.26 0.27
0.86 0.84 0.85 0.86 0.86 0.85 0.85 0.84 0.84 0.84 0.84 0.85 0.87 0.89 0.89 0.88 0.86 0.84 0.83 0.82 0.80 0.77 0.74 0.71 0.70 0.68 0.66 0.64 0.62 0.58 0.55 0.53 0.51 0.48 0.46 0.44 0.42 0.39 0.37 0.35 0.35 0.37 0.40 0.42 0.44 0.44 0.44 0.46 0.45 0.43 0.40 0.40 0.44 0.47 0.50 0.51 0.50 0.47 0.46 0.45 0.43 0.41 0.39 0.37 0.36 0.35 0.34 0.33 0.32 0.30 0.30 0.29 0.28 0.28 0.28 0.28 0.28 0.28 0.28 0.28 0.28 0.27 0.27 0.27 0.28
0.83 0.81 0.82 0.83 0.84 0.83 0.83 0.83 0.83 0.83 0.84 0.85 0.86 0.87 0.86 0.84 0.83 0.82 0.81 0.78 0.76 0.73 0.70 0.68 0.66 0.63 0.60 0.58 0.56 0.53 0.51 0.50 0.48 0.45 0.42 0.39 0.37 0.36 0.34 0.33 0.34 0.36 0.40 0.42 0.44 0.45 0.45 0.46 0.46 0.44 0.42 0.44 0.47 0.49 0.51 0.52 0.52 0.52 0.50 0.48 0.46 0.44 0.42 0.41 0.40 0.39 0.38 0.36 0.35 0.34 0.32 0.31 0.29 0.29 0.29 0.29 0.29 0.28 0.28 0.28 0.28 0.28 0.28 0.28 0.28
0.83 0.82 0.81 0.82 0.82 0.82 0.82 0.83 0.83 0.83 0.83 0.83 0.83 0.83 0.83 0.84 0.83 0.80 0.78 0.77 0.74 0.70 0.65 0.62 0.61 0.59 0.58 0.57 0.55 0.53 0.52 0.50 0.47 0.44 0.41 0.38 0.36 0.36 0.36 0.35 0.35 0.38 0.42 0.44 0.46 0.47 0.47 0.47 0.46 0.44 0.42 0.44 0.47 0.50 0.51 0.51 0.52 0.51 0.49 0.48 0.46 0.44 0.43 0.42 0.40 0.39 0.39 0.38 0.37 0.36 0.35 0.34 0.32 0.31 0.31 0.30 0.30 0.30 0.30 0.30 0.30 0.30 0.30 0.30 0.31
0.85 0.83 0.82 0.81 0.82 0.83 0.83 0.84 0.83 0.82 0.83 0.83 0.83 0.82 0.82 0.83 0.83 0.81 0.78 0.74 0.69 0.64 0.62 0.62 0.62 0.61 0.60 0.59 0.57 0.55 0.54 0.52 0.48 0.43 0.40 0.39 0.39 0.38 0.37 0.36 0.39 0.45 0.49 0.49 0.49 0.49 0.47 0.45 0.43 0.42 0.43 0.45 0.48 0.50 0.51 0.52 0.52 0.50 0.48 0.46 0.45 0.44 0.44 0.43 0.42 0.41 0.41 0.40 0.40 0.38 0.37 0.35 0.35 0.34 0.31 0.31 0.30 0.30 0.30 0.30 0.30 0.30 0.30 0.31 0.31
0.89 0.87 0.84 0.84 0.86 0.86 0.86 0.86 0.84 0.84 0.83 0.82 0.82 0.81 0.81 0.79 0.76 0.74 0.72 0.69 0.65 0.63 0.63 0.64 0.64 0.63 0.62 0.61 0.62 0.60 0.58 0.55 0.50 0.45 0.42 0.40 0.41 0.42 0.41 0.42 0.46 0.49 0.49 0.48 0.47 0.45 0.44 0.43 0.43 0.44 0.45 0.47 0.49 0.51 0.53 0.54 0.52 0.50 0.48 0.46 0.45 0.43 0.42 0.42 0.42 0.42 0.42 0.41 0.39 0.37 0.36 0.35 0.32 0.31 0.31 0.31 0.31 0.31 0.31 0.31 0.32 0.32 0.32 0.32 0.32
0.87 0.86 0.86 0.86 0.86 0.86 0.85 0.83 0.82 0.82 0.80 0.80 0.79 0.78 0.77 0.75 0.73 0.72 0.69 0.67 0.66 0.65 0.64 0.64 0.64 0.62 0.61 0.60 0.59 0.58 0.56 0.54 0.51 0.47 0.45 0.44 0.44 0.45 0.45 0.45 0.45 0.45 0.46 0.47 0.46 0.45 0.44 0.43 0.43 0.44 0.46 0.49 0.52 0.54 0.54 0.54 0.52 0.50 0.48 0.46 0.44 0.42 0.41 0.40 0.39 0.37 0.38 0.37 0.37 0.36 0.34 0.31 0.31 0.32 0.32 0.32 0.31 0.32 0.33 0.34 0.35 0.34 0.34 0.34 0.33
0.86 0.86 0.83 0.80 0.80 0.80 0.80 0.80 0.79 0.79 0.81 0.79 0.77 0.76 0.75 0.73 0.70 0.68 0.68 0.66 0.63 0.60 0.59 0.60 0.60 0.59 0.58 0.57 0.54 0.52 0.51 0.51 0.51 0.49 0.47 0.46 0.45 0.45 0.44 0.43 0.43 0.44 0.45 0.45 0.46 0.46 0.45 0.45 0.46 0.47 0.50 0.53 0.54 0.54 0.54 0.54 0.52 0.49 0.48 0.46 0.43 0.41 0.40 0.40 0.39 0.39 0.38 0.37 0.36 0.34 0.33 0.32 0.32 0.32 0.32 0.32 0.33 0.34 0.36 0.36 0.37 0.36 0.35 0.34 0.34
0.77 0.76 0.76 0.75 0.75 0.76 0.77 0.76 0.75 0.78 0.80 0.80 0.79 0.77 0.75 0.73 0.69 0.66 0.63 0.59 0.58 0.57 0.56 0.55 0.55 0.56 0.55 0.54 0.53 0.52 0.52 0.54 0.54 0.53 0.51 0.49 0.46 0.44 0.43 0.43 0.44 0.45 0.46 0.47 0.48 0.48 0.47 0.47 0.48 0.49 0.49 0.49 0.50 0.53 0.55 0.54 0.51 0.49 0.48 0.46 0.44 0.43 0.43 0.42 0.40 0.38 0.37 0.36 0.35 0.35 0.34 0.34 0.33 0.33 0.33 0.33 0.35 0.37 0.37 0.37 0.36 0.35 0.35 0.34 0.34
Wind_Speed
21 21 21 20 20 20 20 19 18 17 17 16 15 15 14 14 15 15 14 14 14 14 13 13 13 13 12 12 13 13 12 12 12 12 12 13 13 14 14 14 14 15 16 16 17 17 18 18 17 18 18 18 19 19 20 20 21 21 22 22 23 23 24 25 26 27 28 29 30 30 30 30 31 32 32 33 34 35 36 36 37 37 37 37 38
21 21 21 20 20 20 20 19 19 18 17 16 16 15 15 15 15 15 15 14 14 14 13 13 13 13 13 13 13 13 13 13 13 13 13 13 14 14 15 15 15 16 16 17 17 18 17 17 17 18 18 19 19 19 20 20 21 21 22 22 23 24 24 25 26 27 28 30 30 30 30 30 31 32 33 33 34 35 36 36 36 36 37 38 38
22 22 21 21 20 20 20 20 19 18 18 17 16 16 15 15 15 15 15 15 14 14 14 14 14 14 14 14 14 14 13 13 13 14 14 14 15 15 15 16 16 17 17 17 17 17 17 17 17 18 18 19 19 19 20 21 21 21 22 22 23 24 24 25 26 27 29 30 30 30 30 31 31 32 33 34 34 35 36 36 36 36 37 38 38
22 22 22 21 21 21 20 20 19 19 18 18 17 16 15 15 15 15 15 15 14 14 15 15 15 14 14 15 14 14 14 14 14 15 15 15 15 16 16 16 16 17 17 16 17 17 17 17 17 18 18 18 19 19 20 21 21 21 21 22 23 23 24 25 26 27 28 29 29 30 30 31 31 32 33 34 34 35 36 35 35 36 37 38 38
22 22 22 22 21 21 21 20 20 19 19 18 17 16 16 16 16 16 16 15 15 15 15 15 15 15 15 15 15 15 15 15 16 16 16 16 16 16 16 16 16 16 16 16 17 18 18 18 18 18 18 18 19 19 20 20 21 21 22 22 23 23 24 25 26 27 27 28 29 30 30 31 32 32 33 33 34 35 35 34 35 36 37 38 38
22 22 22 22 22 22 21 21 21 20 19 18 17 17 16 16 16 16 16 16 15 16 16 16 16 16 16 16 16 16 16 16 17 17 17 16 16 16 16 16 16 17 17 18 18 19 18 18 18 18 18 18 19 19 20 20 21 22 22 22 22 23 24 25 26 27 27 28 29 29 30 31 32 32 33 34 35 35 35 34 35 36 36 37 38
23 22 22 22 22 22 22 22 21 20 19 18 18 17 17 16 17 16 16 16 16 16 16 16 16 16 16 16 16 17 17 17 18 18 17 17 16 17 17 17 17 18 18 18 19 19 18 18 18 18 18 18 19 19 20 21 21 21 21 22 23 24 25 26 26 26 27 27 28 29 30 31 32 32 33 34 34 34 34 35 36 36 37 38 39
23 22 22 22 22 22 22 22 21 20 19 19 18 17 17 17 17 17 16 16 16 16 16 16 17 17 16 17 17 17 18 18 18 18 17 17 17 17 17 17 17 17 18 18 18 18 18 18 18 18 18 18 18 19 20 21 21 21 21 22 23 24 25 25 26 26 26 27 28 29 30 31 32 32 33 34 34 33 34 35 36 37 38 39 39
23 22 22 22 22 23 23 22 21 20 19 19 18 18 17 17 17 16 16 16 17 17 17 17 17 17 16 17 17 18 18 18 17 17 17 17 17 17 16 16 17 17 17 18 18 18 18 18 18 17 17 18 18 20 20 20 20 20 21 22 23 24 24 25 25 25 26 27 28 29 30 31 32 33 34 34 33 34 35 35 36 37 38 39 40
23 23 23 23 23 23 22 22 21 20 20 19 19 18 18 17 16 16 16 17 17 17 17 17 17 17 17 18 18 18 18 17 17 16 16 16 16 16 16 16 16 17 17 18 18 18 18 18 17 17 17 18 19 20 20 20 20 21 22 22 23 24 24 24 24 25 25 27 28 29 30 31 32 33 34 34 33 34 35 36 37 38 39 40 40
24 23 23 22 23 23 22 22 22 21 20 19 19 19 18 17 16 16 17 17 17 17 18 18 18 18 19 19 18 18 17 18 17 16 16 16 16 16 16 16 17 17 18 18 18 18 18 18 18 18 18 19 19 20 20 20 20 21 22 23 23 24 24 24 24 24 25 26 28 29 30 31 32 33 34 34 34 34 35 36 37 38 39 40 40
23 23 23 22 23 23 22 23 22 21 20 20 20 19 18 17 17 17 17 18 18 18 19 19 19 19 19 19 18 17 17 18 17 16 16 16 17 17 16 17 17 17 18 18 18 18 18 18 18 18 19 19 19 19 19 19 20 21 22 23 23 23 24 23 23 24 25 26 28 30 31 31 33 34 34 34 34 35 35 36 37 38 39 40 40
23 23 22 22 22 22 23 23 22 21 20 20 20 19 19 18 17 18 18 19 19 19 19 19 19 19 19 19 18 18 18 18 18 17 16 16 17 17 17 17 17 17 17 17 17 18 18 18 18 19 19 19 19 19 19 19 20 21 22 22 23 23 23 23 23 24 25 26 28 29 31 32 33 34 34 34 34 35 36 36 37 38 39 39 40
22 22 21 21 22 22 23 23 22 21 21 20 20 20 20 19 19 19 20 20 20 20 20 20 19 19 19 19 19 19 19 19 18 17 17 17 17 16 17 17 17 17 17 17 17 17 17 18 18 19 19 19 18 18 19 20 20 20 21 22 22 22 21 21 22 23 24 26 27 29 31 32 33 34 34 34 34 35 36 37 38 38 38 39 39
22 22 21 21 22 23 23 23 22 22 21 21 21 21 21 20 20 20 20 20 20 20 21 20 20 20 20 20 20 19 19 19 18 18 17 17 17 17 17 17 17 17 17 17 17 17 17 18 18 18 18 18 18 18 19 19 20 20 21 21 21 21 20 20 21 22 24 26 27 29 30 32 33 34 34 34 34 35 35 36 37 38 38 38 39
22 22 22 23 23 23 23 23 23 22 22 22 22 22 21 21 21 21 21 20 20 20 21 21 21 21 21 21 20 20 20 19 19 18 18 18 18 17 17 17 17 17 17 17 17 18 18 19 18 18 18 18 18 18 18 19 19 20 20 21 21 20 19 20 21 23 24 26 27 28 30 32 33 34 34 34 34 34 34 35 36 37 37 38 38
22 22 22 23 24 24 24 23 23 23 22 22 22 22 22 22 22 22 21 20 20 20 20 21 21 21 21 21 20 19 20 20 19 18 18 18 18 17 17 17 16 16 17 18 18 18 18 19 18 18 18 18 18 18 18 18 19 19 20 20 20 19 19 20 21 23 24 25 27 29 30 32 33 33 33 33 33 34 34 35 36 37 37 37 38
22 22 22 23 23 23 23 23 23 23 23 23 23 22 22 22 23 22 22 21 20 21 20 20 21 21 21 21 20 19 19 20 19 19 18 18 18 18 17 17 17 17 18 18 18 18 18 18 18 17 18 17 17 17 18 18 18 19 20 20 19 19 19 20 21 22 23 25 27 29 30 31 32 31 32 32 33 33 34 35 36 37 37 37 38
22 22 22 22 22 22 22 22 22 23 23 23 23 22 22 23 23 22 22 21 21 22 21 21 21 22 21 21 20 19 19 20 20 19 19 18 18 18 17 17 17 18 18 18 18 18 19 18 18 18 17 17 17 17 17 17 18 19 19 19 18 18 19 20 21 22 23 25 26 28 29 30 30 30 31 32 32 33 33 35 36 36 36 37 38
23 22 22 22 21 21 22 22 22 23 23 22 22 22 22 22 22 22 22 21 21 22 22 21 21 21 21 21 20 19 19 19 20 20 19 19 18 18 17 17 18 18 18 18 18 18 19 19 19 18 18 17 17 17 17 17 17 18 18 18 18 18 18 19 20 22 23 25 26 27 28 29 29 30 30 31 32 33 33 34 35 35 36 37 38
23 23 22 22 21 22 22 23 23 23 22 22 22 21 22 22 22 22 21 21 21 21 21 21 20 21 21 21 20 19 19 20 20 20 19 19 19 19 18 18 18 18 18 18 18 18 19 19 19 18 17 17 17 16 16 16 17 17 17 17 17 18 18 19 20 22 23 24 25 27 28 29 29 29 30 31 31 32 33 34 35 35 35 36 37
22 22 22 21 21 21 22 22 22 22 22 22 21 21 22 22 22 22 21 21 21 21 21 20 20 21 22 20 19 19 20 21 20 20 19 19 19 20 19 18 17 17 18 18 19 19 19 20 19 18 16 16 15 16 16 16 16 17 17 17 17 17 18 18 20 21 23 24 25 26 28 28 29 29 30 31 31 31 32 34 35 35 35 36 37
21 21 21 20 20 20 21 21 22 22 22 22 22 22 22 22 22 22 22 22 21 21 21 21 21 21 21 20 19 20 22 21 20 20 20 19 19 20 19 19 18 17 17 18 19 19 19 19 19 17 16 15 15 15 16 16 16 17 17 17 17 17 17 18 19 21 22 23 24 26 27 28 28 29 30 31 31 31 32 33 34 35 35 36 36
21 20 20 20 20 20 20 21 21 21 21 22 22 22 22 22 22 23 23 23 22 22 22 22 21 20 20 20 20 21 22 21 20 20 20 19 19 19 19 19 19 18 18 18 18 18 18 18 17 16 16 15 15 16 16 16 17 17 17 17 17 17 17 18 19 20 22 23 24 26 27 28 28 29 30 31 31 31 32 33 34 34 35 35 36
20 19 19 20 20 20 20 21 21 21 21 22 22 22 22 22 23 23 23 23 23 23 22 21 20 20 20 20 20 21 21 20 19 19 19 19 19 19 19 19 19 19 18 18 17 17 16 16 16 16 16 16 16 16 16 16 17 17 17 17 17 17 17 18 19 20 21 22 23 25 26 27 27 28 29 30 30 31 31 32 33 34 35 35 35
19 19 19 19 20 20 20 21 21 21 21 21 22 22 23 23 23 24 24 23 23 22 22 21 20 20 19 19 19 20 20 19 19 19 19 19 19 19 20 20 20 20 19 19 18 17 16 16 17 17 17 16 16 17 17 17 17 17 17 17 17 17 17 18 18 19 21 22 23 24 26 26 26 28 29 29 30 30 31 32 32 33 34 35 35
19 19 19 19 20 21 21 21 21 21 21 21 21 22 22 23 23 24 23 22 22 22 21 21 20 20 19 18 19 18 19 19 19 19 19 19 19 20 20 20 20 20 20 19 19 18 18 18 18 18 17 17 17 17 17 17 17 17 17 17 17 17 17 18 19 19 20 21 22 24 25 25 26 27 28 28 29 30 30 31 32 33 34 34 35
19 19 19 19 20 21 21 21 21 21 22 22 22 22 22 22 23 23 23 22 21 21 20 20 21 20 19 19 19 18 19 19 19 19 19 20 20 20 20 20 21 20 20 20 20 19 18 18 18 18 18 18 17 17 17 17 17 18 18 18 18 17 18 18 19 19 20 20 21 24 25 24 25 27 27 28 29 30 30 30 31 32 33 34 35
20 20 20 20 20 21 20 20 21 21 22 22 22 22 22 22 23 22 22 22 22 21 21 21 21 20 19 19 19 19 19 20 20 20 20 20 20 20 21 21 21 20 20 20 20 19 19 19 19 19 18 18 18 18 17 17 18 18 18 18 17 17 17 18 18 19 19 20 21 23 24 24 25 25 26 27 28 29 29 29 30 31 32 33 34
21 21 21 21 21 21 21 20 20 20 21 21 21 21 21 22 22 22 22 22 22 22 21 21 21 21 20 20 20 20 20 20 20 20 20 20 21 21 20 20 20 20 20 20 20 20 19 19 19 19 18 19 18 18 18 18 19 19 18 18 17 17 18 18 18 19 19 20 21 23 23 23 24 24 25 26 27 28 28 29 29 30 31 32 33
22 22 22 23 22 22 21 20 19 19 20 20 21 21 21 21 21 21 21 21 21 21 22 21 21 21 21 21 21 21 20 20 20 20 20 20 20 20 20 20 20 20 20 20 20 20 19 19 19 19 19 19 19 19 19 19 19 19 19 18 18 18 18 18 19 19 19 20 21 22 22 22 23 23 25 26 26 27 28 28 29 29 30 31 32
23 23 23 23 23 22 21 21 20 20 20 20 21 21 21 21 21 20 20 20 21 21 21 21 21 20 20 20 20 20 20 19 19 20 20 20 19 19 19 20 20 19 19 19 20 20 20 20 20 20 20 20 20 19 19 19 20 19 19 19 19 18 18 19 19 19 19 20 21 21 21 22 22 23 24 25 25 26 27 27 28 29 29 30 32
24 23 23 23 22 22 22 21 21 21 21 21 21 20 21 22 21 20 20 20 21 21 21 21 21 21 20 20 19 19 19 19 19 20 20 19 18 19 19 20 20 20 20 20 20 20 21 21 21 21 21 21 20 20 20 20 20 20 19 19 19 19 19 19 19 18 19 19 20 20 21 21 22 22 23 24 25 26 26 26 27 28 29 30 31
24 23 23 23 23 23 23 22 21 21 21 21 21 20 21 21 21 20 20 20 21 21 21 21 21 21 20 20 19 18 19 19 20 20 20 19 19 19 19 20 20 21 21 21 21 21 21 22 22 22 22 22 21 21 21 21 20 20 19 19 19 19 19 19 19 18 18 19 19 20 21 21 21 22 23 24 24 25 25 26 26 27 28 29 29
24 23 23 22 23 23 23 22 21 21 21 21 21 21 21 21 21 21 21 21 21 21 21 21 21 21 21 21 20 19 19 19 19 19 19 19 20 20 20 21 21 22 22 22 22 22 23 23 23 23 23 23 22 22 22 22 21 20 20 19 19 19 19 19 19 18 18 18 19 20 21 21 21 22 22 23 23 24 25 25 25 26 27 28 29
24 24 24 23 23 23 22 22 21 21 21 21 21 21 21 21 21 22 21 21 21 21 21 21 21 21 21 21 21 20 20 19 19 19 20 20 21 21 22 22 22 22 22 23 23 24 24 24 24 24 24 24 23 23 23 22 21 21 20 20 19 19 19 19 19 18 18 18 19 20 21 21 21 21 21 22 23 24 24 24 25 26 26 27 28
25 25 25 25 24 23 22 21 21 21 21 21 21 22 22 21 21 21 21 20 21 21 21 21 21 21 22 22 21 21 20 20 19 20 21 21 22 23 23 23 23 23 23 23 24 24 24 24 25 25 25 24 24 24 23 22 21 21 21 20 20 19 19 20 19 18 18 19 20 21 21 21 21 21 20 21 22 23 24 24 25 25 25 26 27
23 24 24 24 23 22 22 21 21 21 21 21 21 21 21 21 20 20 20 20 21 21 21 21 22 22 23 22 22 21 21 21 21 21 21 22 23 23 23 23 23 23 23 24 24 24 24 24 25 24 24 24 24 24 23 22 22 21 21 21 20 20 20 19 19 18 19 20 20 20 20 20 20 20 20 21 22 23 23 24 25 25 25 25 26
22 22 22 21 21 21 21 21 21 21 21 21 21 21 21 21 20 20 20 20 20 21 21 21 22 23 23 23 22 22 22 22 22 22 23 23 23 23 23 23 23 23 24 24 24 24 24 24 24 24 24 23 23 23 23 22 22 21 21 21 20 20 20 20 19 19 19 19 19 20 20 20 20 20 20 21 22 22 23 24 24 24 24 24 25
23 22 21 20 20 21 21 21 21 21 21 21 20 20 21 21 20 20 20 21 21 21 22 22 22 22 22 23 23 23 23 23 23 23 23 24 24 24 24 24 24 25 25 25 25 25 25 24 24 23 23 23 22 23 23 23 22 22 21 21 21 20 20 20 19 19 19 19 19 20 20 20 20 20 21 21 21 22 23 24 24 24 24 24 25
22 22 21 20 19 20 20 20 20 20 20 21 20 21 22 21 21 21 21 22 22 22 22 22 22 22 22 23 23 24 24 24 24 24 24 24 24 25 25 25 25 25 25 25 25 25 24 25 24 24 23 23 23 23 23 24 23 22 22 21 21 21 21 20 19 19 20 20 20 20 20 20 21 21 21 21 21 22 23 23 24 24 24 24 24
21 21 21 21 20 19 19 19 19 20 20 20 20 20 21 21 20 21 21 22 22 23 22 22 22 22 22 21 22 22 23 24 24 24 25 25 25 26 26 26 26 26 26 25 25 24 24 24 24 24 23 23 23 23 23 23 23 22 21 21 21 21 21 20 19 20 20 20 20 20 21 21 21 20 21 21 21 22 23 23 24 24 24 24 25
19 20 20 20 19 19 19 19 20 20 20 20 21 20 20 20 20 21 21 22 22 23 23 22 22 21 21 20 21 22 23 23 23 23 24 24 25 26 26 26 26 26 26 25 25 24 24 24 24 24 24 24 24 23 23 23 23 22 22 22 22 22 21 20 20 20 20 20 20 21 21 21 21 20 21 21 21 22 23 23 24 24 24 24 25
18 19 19 19 19 19 20 20 20 20 20 20 21 21 21 21 21 21 22 22 22 23 22 22 21 21 20 20 21 22 22 22 22 22 23 23 24 25 25 25 25 25 25 25 25 25 24 24 24 24 24 24 24 24 24 24 23 23 22 22 22 21 20 20 20 20 20 21 21 21 21 21 21 20 20 21 21 22 23 24 24 24 24 24 25
18 18 18 19 19 19 20 20 20 20 20 20 20 21 22 22 22 22 22 22 22 22 22 21 21 20 20 20 20 21 21 21 21 21 22 22 23 24 24 24 24 24 24 24 24 24 24 23 23 24 24 24 24 24 24 24 24 23 22 21 20 20 20 20 21 21 21 21 21 21 21 21 20 20 20 21 22 23 23 23 23 23 24 24 25
18 18 18 19 19 20 20 20 20 20 20 20 20 21 22 22 22 22 22 21 21 21 21 21 20 20 20 20 21 21 21 22 22 21 22 22 22 22 22 22 22 22 22 22 22 23 23 23 23 23 23 23 23 24 24 24 24 24 23 21 21 21 21 21 22 22 22 21 21 22 22 21 20 20 21 22 22 23 23 23 23 23 24 25 25
17 17 18 18 19 19 20 20 19 20 20 20 20 20 21 21 21 22 21 21 21 21 21 21 21 21 21 21 21 21 21 22 22 22 22 22 21 21 20 20 21 21 20 20 20 20 21 22 22 22 22 22 23 23 23 24 24 24 23 22 22 22 22 22 22 22 21 21 21 21 21 20 20 21 22 22 23 23 24 23 23 24 24 25 25
17 17 17 18 18 19 19 19 19 19 19 19 20 20 20 20 20 21 21 21 21 21 21 21 22 22 22 21 21 21 21 22 22 22 21 21 20 20 19 19 19 19 19 18 18 19 20 20 21 22 22 22 22 22 22 22 22 22 22 22 22 22 22 22 22 22 21 21 21 21 20 20 21 22 22 23 23 24 24 24 24 24 25 25 25
17 18 18 18 18 18 19 19 19 19 19 19 20 20 20 20 20 21 21 21 21 21 21 21 22 22 21 21 21 20 20 20 21 21 21 20 20 19 18 18 19 19 19 19 19 19 20 20 21 21 22 23 23 23 23 22 22 22 22 22 23 23 23 23 23 22 22 22 22 22 22 22 22 22 22 23 24 24 24 24 24 25 25 26 26
19 19 19 19 19 19 19 19 19 19 19 20 20 19 19 19 20 20 21 21 21 21 21 21 21 21 21 20 20 20 19 20 20 20 20 20 20 19 19 19 19 19 20 20 20 20 20 21 21 21 22 22 23 23 23 23 23 23 23 23 23 23 23 23 22 22 22 22 22 22 22 22 23 23 23 23 24 24 24 24 25 26 26 26 26
19 19 19 19 19 19 19 19 19 19 20 20 20 19 19 20 20 20 20 20 20 20 20 20 21 21 21 20 20 20 19 19 19 20 20 20 21 21 20 20 20 20 20 20 21 21 21 21 21 21 22 22 23 23 23 23 23 22 22 22 22 22 22 22 22 22 22 23 23 23 23 23 23 24 24 24 24 24 25 25 26 26 26 26 25
Wind_Direction
229 229 231 234 233 232 232 232 233 233 233 233 233 235 238 240 243 245 248 250 249 245 243 243 243 245 250 254 256 259 261 264 268 271 275 278 280 282 283 285 288 290 293 296 297 299 301 303 303 304 305 306 308 310 311 313 314 314 315 315 316 318 319 320 318 318 319 321 322 323 324 323 324 324 324 324 325 325 326 327 328 328 328 327 327
229 229 231 232 232 231 231 231 232 232 233 234 234 237 240 242 244 246 247 250 248 243 241 241 243 246 251 254 257 260 263 266 269 272 275 278 279 281 283 285 287 290 292 295 298 300 302 302 303 305 306 307 308 310 312 312 313 314 314 315 316 318 319 319 318 317 319 322 323 323 324 324 324 325 325 325 326 327 327 328 329 329 329 328 328
228 229 230 230 231 231 229 230 231 232 234 235 236 238 241 242 245 246 247 249 247 242 240 241 243 247 252 255 258 262 265 267 270 273 275 277 279 282 284 286 288 290 292 295 298 300 302 303 304 304 305 306 308 311 312 312 313 313 314 315 317 318 319 319 318 318 319 321 322 323 323 324 325 325 326 326 327 328 329 329 329 329 330 330 329
227 228 228 229 230 230 229 229 231 233 235 236 236 238 240 241 245 246 246 248 246 241 241 242 244 248 253 256 260 263 266 268 270 272 275 277 279 282 285 287 289 290 292 294 297 300 302 303 303 304 305 306 308 311 312 312 313 314 315 317 318 320 320 319 318 318 318 320 322 323 324 325 326 326 327 327 328 329 329 330 330 330 331 331 331
226 227 227 228 228 229 229 230 231 233 235 235 235 237 239 242 245 245 245 247 245 242 243 244 246 249 254 258 261 265 267 268 270 272 274 276 279 282 285 287 289 290 292 293 297 300 302 303 303 303 305 307 309 311 312 313 314 315 317 318 319 320 320 320 320 320 320 320 322 324 325 326 327 328 328 329 329 330 330 330 330 331 332 332 332
226 227 227 227 227 229 230 230 231 234 235 234 234 236 239 242 244 244 245 246 245 244 245 246 248 251 255 260 264 267 269 269 270 271 273 276 279 282 284 285 287 289 291 293 296 300 302 302 302 303 305 307 309 311 312 314 315 316 318 319 320 321 321 322 323 323 323 322 323 325 327 328 328 329 330 330 330 330 330 330 331 333 333 333 333
226 227 226 226 228 230 230 230 232 234 234 233 234 236 239 242 242 243 245 245 246 246 246 248 251 254 258 262 266 269 270 271 271 272 274 276 278 282 283 283 285 288 290 292 296 299 300 301 302 304 306 308 310 311 313 314 315 317 318 320 321 322 323 324 324 325 325 325 326 328 329 329 330 330 331 332 332 331 331 331 332 334 335 334 334
226 226 226 227 229 229 229 230 231 232 232 232 234 236 238 240 241 243 244 245 247 248 248 249 253 256 260 265 268 270 271 273 273 273 275 276 279 283 283 282 284 287 289 292 295 297 299 300 302 304 306 308 310 312 314 315 316 317 319 320 322 323 324 325 325 326 326 328 329 330 330 331 331 331 332 333 333 332 333 333 333 334 335 335 334
225 225 225 226 227 227 229 230 231 230 231 232 234 236 237 239 241 243 244 245 248 249 250 252 254 257 261 264 267 270 272 273 273 273 275 279 282 285 284 283 284 287 290 292 295 297 298 300 302 304 306 307 309 311 313 314 316 318 319 321 322 323 324 325 326 326 328 329 331 331 332 332 332 333 334 334 333 333 334 334 334 334 334 334 335
225 225 225 225 226 227 228 228 228 229 230 232 234 235 237 238 241 242 243 246 249 251 251 253 255 257 261 265 268 270 271 271 273 274 276 280 283 285 285 286 287 289 291 293 295 296 297 299 301 303 305 306 308 310 311 313 314 316 318 320 321 322 324 325 326 327 329 330 332 332 333 333 334 334 334 335 335 335 335 335 334 334 334 334 335
223 224 224 224 224 225 227 226 227 228 230 231 233 235 237 239 241 242 244 248 250 251 252 254 257 259 262 268 270 269 269 270 272 276 278 280 283 285 286 287 289 290 292 294 295 296 297 298 299 302 304 305 307 308 309 310 312 315 317 318 320 322 324 325 325 327 329 331 332 334 334 334 334 335 335 335 336 336 336 336 335 335 336 335 335
222 223 224 223 223 225 226 226 226 227 229 231 233 235 237 239 242 244 247 250 252 253 254 257 260 260 264 270 271 269 270 271 271 275 278 280 283 285 286 287 289 291 292 294 296 296 296 297 299 302 304 305 307 308 308 310 312 314 315 316 319 321 322 322 323 326 328 330 332 334 335 335 336 336 336 336 336 336 336 337 336 336 336 336 336
220 222 223 222 222 223 225 225 226 227 229 231 233 235 238 240 243 246 250 252 254 255 256 259 261 261 265 272 273 272 272 271 270 273 275 278 282 285 287 288 290 292 293 295 297 296 294 296 300 303 303 304 306 308 310 312 313 314 315 317 320 321 320 320 321 323 327 330 332 334 336 337 337 337 337 337 336 336 337 337 337 337 337 337 336
220 221 222 221 221 224 225 226 226 227 229 231 234 237 239 242 246 249 252 254 255 256 258 259 261 262 266 272 274 273 272 269 268 270 272 276 281 285 290 291 290 292 294 295 295 294 294 296 300 302 303 304 305 307 310 313 315 315 317 319 321 322 321 321 321 323 327 330 332 334 336 338 338 337 337 337 336 337 337 337 337 338 337 337 337
221 222 223 223 223 225 226 226 226 227 229 232 235 238 241 244 248 251 253 255 255 257 258 258 260 262 266 270 272 272 270 267 266 269 271 274 278 283 289 291 290 290 293 293 292 292 293 296 299 301 302 302 304 307 310 313 315 316 318 320 322 324 324 324 324 326 329 331 333 335 338 339 338 337 337 337 337 337 337 337 338 338 338 339 339
224 225 226 225 224 225 225 226 227 228 230 234 237 240 242 245 249 252 253 255 256 257 258 259 260 263 266 268 270 271 269 265 265 268 269 271 275 280 285 289 289 290 290 290 290 291 293 295 297 298 299 300 303 306 309 312 314 316 319 321 323 325 326 326 327 329 331 333 335 337 338 338 338 337 336 337 337 338 338 339 340 340 340 341 342
225 225 225 225 224 225 226 227 229 230 233 236 239 241 244 246 250 252 253 255 258 258 258 259 262 265 266 267 269 272 269 265 265 267 268 269 272 276 282 287 289 288 289 290 291 292 293 294 295 296 297 299 302 304 308 311 313 316 319 321 323 324 326 327 329 331 333 335 337 337 337 338 337 337 337 338 339 340 341 341 342 342 342 343 343
225 225 225 224 224 225 226 228 230 232 235 239 240 241 244 247 250 251 253 255 258 260 260 261 264 267 266 266 269 270 267 265 265 267 267 268 270 273 279 284 287 288 289 291 292 292 293 294 294 296 297 299 301 303 306 310 312 315 318 320 322 324 326 328 330 332 335 337 337 338 338 339 339 340 341 342 342 343 343 343 343 344 344 344 344
226 227 226 224 223 225 227 230 232 235 237 239 240 242 245 248 249 251 253 255 258 261 262 263 265 267 266 267 269 268 264 264 266 267 267 268 268 271 276 282 287 290 290 291 292 293 293 293 292 293 296 298 300 302 305 308 312 315 317 319 321 322 325 328 330 333 336 337 338 340 341 342 342 343 344 345 345 345 345 345 345 345 345 345 345
227 227 225 224 224 226 228 231 234 236 238 239 240 243 247 249 250 252 255 258 260 262 263 264 265 266 267 268 267 264 261 264 267 267 267 268 266 268 274 281 288 291 291 291 293 293 292 292 291 290 291 293 296 299 303 306 310 313 316 318 319 320 323 327 330 333 334 336 338 340 342 343 343 344 345 346 346 346 347 347 348 347 346 345 346
225 225 225 225 226 227 230 232 234 236 238 239 241 245 248 250 251 254 257 260 262 262 263 266 267 267 268 267 263 259 260 264 267 266 266 265 263 265 273 281 288 292 291 291 292 292 291 292 292 291 289 289 292 296 300 304 308 311 314 316 317 318 321 326 329 331 333 336 338 340 342 343 344 344 346 346 347 348 348 349 349 349 348 347 347
223 223 223 224 226 228 231 233 235 237 240 241 243 246 249 251 253 255 257 260 261 261 262 266 268 268 268 264 259 258 262 266 267 265 263 263 263 265 271 278 285 290 290 290 291 291 291 292 292 290 287 287 290 295 298 302 305 309 312 313 314 316 319 323 326 329 332 335 337 340 342 343 344 345 346 347 348 349 349 349 349 350 349 349 349
219 219 220 222 226 230 232 234 237 240 242 244 245 247 250 252 254 255 256 258 259 260 262 266 268 267 265 261 259 263 267 268 266 264 263 263 264 266 269 274 281 286 289 292 293 291 291 290 289 286 284 285 289 293 296 299 304 307 309 311 313 315 317 321 324 326 330 334 337 340 342 342 343 344 345 347 348 350 350 350 350 351 350 350 351
216 218 221 223 228 232 235 237 240 243 244 246 248 249 251 252 253 254 256 257 258 260 262 266 267 264 261 260 262 265 267 267 265 263 262 264 266 267 269 271 276 282 287 292 294 293 291 289 286 283 282 284 287 290 293 297 302 305 306 309 312 314 314 318 322 324 328 332 336 339 341 342 343 344 345 347 349 350 350 351 351 352 352 352 352
214 218 223 227 230 233 237 240 243 245 247 248 250 251 251 252 253 254 256 257 258 260 263 265 264 262 260 261 262 263 265 266 264 262 262 264 267 269 269 270 273 278 283 287 291 291 289 287 284 281 281 283 285 288 291 296 300 302 303 306 309 310 311 315 319 322 327 331 334 339 340 340 342 343 344 347 349 349 350 351 352 353 354 354 354
218 224 228 231 233 236 239 242 244 246 248 250 252 252 252 253 253 254 256 256 258 260 262 262 261 260 261 261 262 264 265 264 263 262 263 266 269 270 269 270 272 276 279 282 284 286 284 282 281 281 281 282 284 287 290 294 298 302 302 303 304 306 309 313 316 319 325 329 332 337 339 339 341 342 343 346 349 349 350 351 352 354 355 355 355
223 228 231 235 237 239 241 244 245 248 250 252 254 254 254 255 255 254 255 256 258 260 260 258 258 259 261 263 265 265 264 263 264 264 264 267 270 270 270 271 273 275 277 278 279 281 281 280 280 280 281 282 284 286 288 291 297 300 300 299 301 303 306 310 313 316 321 326 330 335 337 337 340 342 343 346 348 348 350 351 352 353 355 355 355
225 228 232 237 240 242 244 247 248 250 252 253 254 255 255 255 256 255 255 256 258 259 258 258 258 258 260 262 263 262 262 263 264 265 265 267 268 269 271 272 273 274 276 276 277 279 279 280 280 279 279 280 282 284 285 288 294 297 296 296 298 301 305 308 311 314 318 323 328 332 334 336 338 340 342 345 346 347 349 350 351 353 355 355 355
228 231 234 240 244 245 248 250 251 252 253 254 255 255 255 256 256 255 255 255 257 258 258 258 258 258 259 260 260 259 261 263 264 265 265 265 266 269 271 271 272 273 274 274 275 276 277 279 279 279 278 278 279 281 284 288 292 294 293 293 296 301 305 308 310 313 316 321 326 330 332 334 336 338 341 343 344 346 348 350 351 352 354 355 356
231 234 238 243 246 247 249 251 253 254 254 255 255 256 256 256 256 255 254 254 255 256 258 260 260 260 261 261 260 260 262 265 265 264 264 264 266 269 270 269 271 273 274 273 274 275 276 277 277 277 276 276 277 279 283 287 291 291 290 291 294 299 303 306 308 310 313 318 323 328 330 332 334 337 339 341 343 345 347 349 350 352 353 354 355
237 239 242 246 247 248 250 252 253 253 253 254 254 254 254 255 256 257 255 254 253 254 256 259 259 260 261 262 261 262 264 265 264 264 265 266 267 268 268 269 271 274 274 273 272 272 274 276 276 276 276 276 276 278 281 285 287 288 288 289 291 295 299 302 304 307 310 316 322 326 329 331 332 335 337 339 341 343 345 347 349 350 352 354 355
240 243 246 247 248 249 251 251 250 250 252 253 254 253 252 252 253 255 255 253 253 255 257 259 260 260 262 263 262 262 263 263 263 265 268 269 268 267 268 270 272 274 274 272 270 271 273 275 276 277 277 276 276 277 280 283 285 285 286 287 288 291 296 300 302 304 308 314 320 325 328 329 331 333 334 336 338 340 343 345 347 348 351 353 354
243 245 248 249 249 250 251 250 249 250 252 252 252 252 251 250 249 251 253 253 255 257 259 260 260 260 261 262 262 261 261 261 262 266 268 268 267 268 270 273 274 274 273 272 271 271 273 274 275 276 275 275 275 276 279 281 282 282 284 285 287 290 295 298 301 303 307 313 319 324 326 328 329 330 331 333 336 339 341 343 344 346 349 351 352
246 247 249 250 250 251 251 249 249 252 253 252 251 250 251 250 249 249 251 253 254 257 259 260 259 259 259 261 262 261 261 262 264 266 267 267 267 268 272 274 275 275 274 272 271 271 272 273 274 274 274 273 274 276 278 279 279 279 281 283 286 289 293 296 298 301 306 312 318 322 324 325 325 326 329 332 336 338 340 341 342 344 347 348 350
248 248 249 250 250 250 249 248 249 252 253 252 251 251 251 251 250 251 252 253 254 255 257 257 257 257 258 259 261 261 262 264 265 265 266 267 268 270 273 275 275 275 274 272 271 271 272 272 273 273 273 273 273 275 277 277 276 277 279 281 284 287 290 294 296 299 305 311 315 319 322 322 322 323 326 331 334 336 338 339 341 343 344 345 347
250 249 249 250 250 249 248 247 249 252 253 253 252 251 251 251 251 252 253 254 254 256 256 256 255 256 258 260 261 262 264 264 264 264 265 266 268 270 274 275 274 274 273 272 272 272 272 273 274 273 273 273 273 274 275 275 275 275 277 278 281 284 288 291 295 299 304 309 312 316 318 318 319 321 325 329 332 333 335 337 339 340 341 342 345
250 249 249 249 249 247 246 247 249 251 253 253 252 251 251 251 251 252 253 253 254 256 257 257 256 256 259 261 263 264 265 264 265 266 267 267 269 271 274 274 274 273 273 273 273 272 273 274 274 273 272 272 272 273 273 273 273 274 275 276 278 281 285 288 290 295 301 305 309 312 315 316 317 320 324 327 329 331 333 336 338 337 337 339 343
249 247 246 247 246 243 243 247 250 251 252 252 252 251 250 250 250 251 252 253 254 255 257 258 258 258 259 261 262 263 264 264 266 267 268 269 270 271 272 273 273 273 273 274 274 274 274 275 274 273 271 272 271 271 271 271 272 273 274 274 276 280 283 285 287 293 298 302 305 309 312 314 316 319 321 324 326 329 332 334 334 335 336 338 340
251 250 248 247 245 243 244 247 250 251 251 251 250 248 248 248 248 249 251 253 255 256 258 259 259 260 261 261 261 261 262 264 265 266 267 269 270 270 270 270 271 272 273 274 274 274 274 275 275 273 271 271 271 269 268 270 272 273 272 272 275 278 281 283 286 292 297 300 303 307 311 312 313 315 318 321 323 326 329 330 331 333 334 336 337
252 252 249 246 246 247 249 250 251 251 251 249 247 247 247 248 248 250 252 255 256 257 259 261 261 262 262 262 261 261 262 262 264 265 266 267 268 268 268 269 270 272 274 274 274 274 274 274 274 271 269 269 269 269 268 269 272 273 273 272 273 276 278 281 284 290 294 297 301 305 308 308 309 311 314 316 320 323 325 327 329 330 331 331 333
249 247 245 246 248 250 251 251 251 251 250 250 248 247 248 249 250 251 254 256 257 258 261 264 264 265 264 262 260 261 262 263 265 266 267 266 266 266 267 267 269 271 273 275 275 274 274 273 271 268 266 267 268 269 269 270 271 272 271 270 271 274 276 279 283 288 292 295 299 303 305 305 306 308 311 313 316 320 322 324 326 328 329 330 330
248 246 245 246 249 250 250 250 250 250 251 251 250 249 249 250 251 252 255 257 259 261 263 264 266 267 265 260 257 259 264 267 268 268 268 268 267 268 268 268 268 269 271 273 274 274 274 273 271 267 264 266 268 269 269 269 271 271 270 269 271 274 276 278 282 286 290 293 297 301 303 303 304 306 309 312 315 318 320 322 325 327 328 329 329
249 247 246 246 248 249 249 249 249 250 250 250 250 250 250 252 254 255 257 259 261 262 264 265 266 267 265 260 258 262 266 269 270 270 270 269 270 270 270 269 268 268 270 271 272 272 273 272 270 267 265 264 265 267 269 270 270 270 269 269 270 272 274 277 280 284 287 291 295 299 300 301 302 304 307 310 312 315 318 320 322 325 327 328 328
249 248 247 247 248 249 250 250 250 251 251 251 250 250 251 253 255 256 258 260 261 263 264 264 264 264 264 263 263 265 268 270 272 273 272 272 272 272 271 270 268 268 269 271 272 272 272 271 269 268 266 264 264 266 269 270 270 270 269 268 268 269 272 275 278 281 285 290 293 296 297 298 299 301 304 307 310 313 316 318 321 323 325 326 326
248 249 249 249 249 250 251 252 252 252 253 252 252 252 252 253 254 256 258 260 261 261 262 261 261 262 263 263 263 265 268 271 274 275 275 275 274 273 272 271 270 269 270 271 271 271 271 270 268 267 267 266 265 266 268 269 269 269 268 267 267 270 273 276 278 282 285 288 291 294 294 294 295 298 302 305 309 312 315 317 319 320 322 323 324
248 250 251 251 251 250 251 252 252 252 252 252 251 251 251 252 253 255 258 260 260 259 259 259 260 262 263 263 263 266 269 272 275 276 277 277 276 274 272 271 270 270 270 270 271 271 270 270 269 268 266 265 266 267 269 269 267 266 265 266 268 271 274 276 278 281 284 286 289 291 291 290 292 296 301 304 308 311 313 314 316 318 319 320 321
247 251 253 253 252 251 251 251 251 251 252 252 252 252 252 252 253 256 258 259 259 258 259 260 262 263 264 264 264 266 269 272 275 276 277 277 276 273 271 270 270 270 270 270 270 271 271 270 269 267 266 266 268 270 271 269 265 263 263 265 268 272 275 276 278 280 282 285 288 290 290 289 291 295 299 303 306 308 310 312 314 315 317 318 319
248 251 254 253 252 251 251 251 251 251 252 254 254 254 254 254 254 255 257 258 259 260 260 262 263 264 264 264 264 265 268 272 275 277 277 276 274 273 271 271 271 271 270 270 271 272 272 271 269 267 266 268 269 271 271 268 263 261 262 265 269 272 275 277 278 280 282 285 288 289 290 290 292 294 297 300 303 306 308 310 312 313 314 316 317
250 252 253 252 252 252 252 252 252 253 254 255 255 255 255 255 255 256 258 260 261 262 262 263 263 263 264 264 265 266 268 271 274 277 276 274 272 271 271 270 269 270 271 272 273 273 273 272 270 268 267 268 268 269 269 266 263 262 264 267 269 271 274 275 277 279 282 284 286 287 287 288 290 293 296 299 301 303 306 308 309 311 312 313 314
253 255 254 253 252 253 253 254 254 254 254 255 255 255 256 256 257 258 259 260 260 261 261 261 261 263 265 266 267 268 269 270 272 275 276 273 271 270 269 269 269 270 271 272 273 273 273 273 272 271 270 269 269 269 267 265 263 264 266 268 269 271 272 273 275 278 281 284 285 285 285 287 290 292 295 297 299 301 303 305 307 308 310 311 312
256 257 256 254 254 254 254 255 254 254 254 255 255 255 256 257 258 259 260 259 259 259 259 259 259 261 264 266 267 268 268 269 270 273 275 275 273 271 271 270 270 269 269 271 272 273 273 273 272 272 272 271 270 269 266 263 263 264 266 267 269 270 271 273 275 278 281 283 283 284 285 287 290 292 294 296 298 300 302 304 305 307 308 309 310